CW2389 Weather Reports


time (UTC)temp
F
wind
direction
speed
knots
gust
knots
rain 1hr
in
rain 24hr
in
rain mn
in
humidity
%
barometer
mb
20260509091629 52 150 1.7 7.8 0.00 0.00 0.00 82 1003.6
20260509091140 52 360 3.5 10.4 0.00 0.00 0.00 82 1003.8
20260509090631 52 151 6.1 10.4 0.00 0.00 0.00 82 1003.8
20260509090125 52 152 3.5 8.7 0.00 0.00 0.00 82 1003.9
20260509085705 52 154 3.5 6.1 0.00 0.00 0.00 81 1004.0
20260509085129 52 146 2.6 6.1 0.00 0.00 0.00 81 1004.1
20260509084653 52 157 1.7 7.0 0.00 0.00 0.00 80 1004.0
20260509084134 52 151 1.7 7.8 0.00 0.00 0.00 79 1004.0
20260509083624 52 153 2.6 7.8 0.00 0.00 0.00 79 1004.0
20260509083128 52 160 2.6 7.0 0.00 0.00 0.00 78 1004.2
20260509082640 52 142 3.5 7.0 0.00 0.00 0.00 77 1004.4
20260509082130 51 153 1.7 5.2 0.00 0.00 0.00 76 1004.5
20260509081710 51 360 1.7 4.3 0.00 0.00 0.00 75 1004.6
20260509081139 51 159 2.6 6.1 0.00 0.00 0.00 74 1004.5
20260509080649 51 144 2.6 5.2 0.00 0.00 0.00 74 1004.6
20260509080144 51 360 1.7 4.3 0.00 0.00 0.00 73 1004.7
20260509075636 51 171 1.7 3.5 0.00 0.00 0.00 72 1004.7
20260509075154 52 177 1.7 3.5 0.00 0.00 0.00 71 1004.7
20260509074629 52 150 0.9 3.5 0.00 0.00 0.00 70 1004.8
20260509074135 52 146 1.7 4.3 0.00 0.00 0.00 69 1004.9
20260509073646 52 360 1.7 4.3 0.00 0.00 0.00 69 1004.8
20260509073149 52 167 1.7 4.3 0.00 0.00 0.00 68 1004.9
20260509072631 52 360 2.6 5.2 0.00 0.00 0.00 67 1004.9
20260509072151 52 177 1.7 6.1 0.00 0.00 0.00 66 1005.0
20260509071645 52 194 2.6 8.7 0.00 0.00 0.00 66 1005.1
20260509071136 53 161 2.6 8.7 0.00 0.00 0.00 64 1005.1
20260509070642 53 360 3.5 7.8 0.00 0.00 0.00 63 1005.1
20260509070146 53 360 3.5 7.8 0.00 0.00 0.00 62 1005.2
20260509065657 53 175 1.7 8.7 0.00 0.00 0.00 60 1005.1
20260509065127 53 360 2.6 8.7 0.00 0.00 0.00 57 1005.1
20260509064641 53 159 2.6 6.1 0.00 0.00 0.00 55 1005.0
20260509064201 53 360 2.6 10.4 0.00 0.00 0.00 52 1005.3
20260509063647 53 190 2.6 10.4 0.00 0.00 0.00 50 1005.4
20260509063149 52 360 3.5 8.7 0.00 0.00 0.00 48 1005.4
20260509062700 52 146 3.5 7.8 0.00 0.00 0.00 46 1005.6
20260509062149 52 207 2.6 4.3 0.00 0.00 0.00 44 1005.5
20260509061653 52 360 2.6 7.0 0.00 0.00 0.00 43 1005.6
20260509061142 52 146 3.5 7.0 0.00 0.00 0.00 42 1005.6
20260509060648 52 148 3.5 7.0 0.00 0.00 0.00 42 1005.5
20260509060151 52 167 2.6 7.8 0.00 0.00 0.00 42 1005.6
20260509055642 52 153 2.6 7.8 0.00 0.00 0.00 42 1005.7
20260509055152 52 153 2.6 7.0 0.00 0.00 0.00 42 1005.8
20260509054626 52 182 2.6 7.0 0.00 0.00 0.00 42 1005.9
20260509054137 52 178 3.5 6.1 0.00 0.00 0.00 41 1005.9
20260509053628 52 184 2.6 3.5 0.00 0.00 0.00 42 1006.0
20260509053148 52 188 2.6 3.5 0.00 0.00 0.00 42 1005.9
20260509052639 52 172 1.7 3.5 0.00 0.00 0.00 42 1005.9
20260509052149 52 171 2.6 3.5 0.00 0.00 0.00 41 1005.9
20260509051653 52 360 1.7 4.3 0.00 0.00 0.00 41 1005.8
20260509051134 52 171 2.6 6.1 0.00 0.00 0.00 41 1005.9
20260509050625 52 159 2.6 7.0 0.00 0.00 0.00 41 1006.0
20260509050130 52 155 1.7 7.0 0.00 0.00 0.00 41 1006.0
20260509045657 52 148 3.5 7.0 0.00 0.00 0.00 41 1006.0
20260509045146 52 144 2.6 5.2 0.00 0.00 0.00 41 1006.0
20260509044628 52 166 1.7 5.2 0.00 0.00 0.00 40 1006.1
20260509044159 52 155 1.7 5.2 0.00 0.00 0.00 41 1006.0
20260509043628 52 156 2.6 5.2 0.00 0.00 0.00 40 1006.0
20260509043148 53 160 2.6 4.3 0.00 0.00 0.00 40 1006.1
20260509042639 53 166 1.7 4.3 0.00 0.00 0.00 40 1006.2
20260509042149 53 172 1.7 3.5 0.00 0.00 0.00 40 1006.2
20260509041704 53 155 1.7 2.6 0.00 0.00 0.00 40 1006.2
20260509041141 53 153 0.9 1.7 0.00 0.00 0.00 41 1006.4
20260509040632 53 153 0.0 2.6 0.00 0.00 0.00 40 1006.4
20260509040126 53 153 0.9 2.6 0.00 0.00 0.00 40 1006.4
20260509035633 54 153 0.9 2.6 0.00 0.00 0.00 40 1006.6
20260509035143 54 153 0.9 2.6 0.00 0.00 0.00 39 1006.7
20260509034647 54 153 1.7 2.6 0.00 0.00 0.00 39 1006.7
20260509034129 54 154 0.9 2.6 0.00 0.00 0.00 39 1006.6
20260509033648 54 153 0.9 4.3 0.00 0.00 0.00 39 1006.7
20260509033142 54 153 1.7 4.3 0.00 0.00 0.00 38 1006.7
20260509032634 54 153 0.0 4.3 0.00 0.00 0.00 39 1006.7
20260509032145 54 153 1.7 4.3 0.00 0.00 0.00 38 1006.8
20260509031636 54 153 0.9 1.7 0.00 0.00 0.00 38 1006.9
20260509031147 54 153 0.9 1.7 0.00 0.00 0.00 38 1006.9
20260509030646 55 153 0.9 2.6 0.00 0.00 0.00 38 1007.0
20260509030141 55 153 0.9 2.6 0.00 0.00 0.00 38 1007.0
20260509025632 55 153 0.0 5.2 0.00 0.00 0.00 38 1007.1
20260509025203 55 152 1.7 5.2 0.00 0.00 0.00 37 1007.1
20260509024642 55 153 0.9 4.3 0.00 0.00 0.00 37 1007.3
20260509024132 55 155 1.7 4.3 0.00 0.00 0.00 37 1007.4
20260509023643 55 156 0.9 1.7 0.00 0.00 0.00 37 1007.4
20260509023208 55 156 0.0 1.7 0.00 0.00 0.00 37 1007.4
20260509022627 56 153 0.0 1.7 0.00 0.00 0.00 37 1007.4
20260509022147 56 153 0.9 1.7 0.00 0.00 0.00 37 1007.4
20260509021642 56 153 0.0 1.7 0.00 0.00 0.00 37 1007.3
20260509021133 56 152 0.9 1.7 0.00 0.00 0.00 36 1007.3
20260509020639 56 152 0.0 1.7 0.00 0.00 0.00 36 1007.3
20260509020133 57 152 0.0 1.7 0.00 0.00 0.00 36 1007.3
20260509015644 57 151 0.0 2.6 0.00 0.00 0.00 36 1007.1
20260509015142 57 151 0.9 4.3 0.00 0.00 0.00 35 1007.0
20260509014636 57 151 1.7 4.3 0.00 0.00 0.00 35 1007.1
20260509014127 58 152 2.6 4.3 0.00 0.00 0.00 34 1007.1
20260509013638 57 143 2.6 4.3 0.00 0.00 0.00 34 1007.1
20260509013128 57 167 0.9 1.7 0.00 0.00 0.00 35 1007.1
20260509012649 58 167 0.9 2.6 0.00 0.00 0.00 34 1007.1
20260509012130 58 167 0.0 2.6 0.00 0.00 0.00 34 1007.1
20260509011633 58 360 0.9 1.7 0.00 0.00 0.00 34 1007.1
20260509011142 58 167 0.0 1.7 0.00 0.00 0.00 34 1007.1
20260509010633 59 360 0.0 2.6 0.00 0.00 0.00 33 1007.1
20260509010128 59 167 0.9 2.6 0.00 0.00 0.00 32 1007.2
20260509005644 59 178 0.9 2.6 0.00 0.00 0.00 32 1007.1
20260509005133 59 166 0.9 4.3 0.00 0.00 0.00 32 1007.1
20260509004627 59 360 1.7 4.3 0.00 0.00 0.00 31 1007.1
20260509004138 60 157 1.7 4.3 0.00 0.00 0.00 31 1007.2
20260509003629 60 168 0.9 4.3 0.00 0.00 0.00 31 1007.2
20260509003132 60 166 1.7 5.2 0.00 0.00 0.00 31 1007.2
20260509002643 60 188 2.6 6.1 0.00 0.00 0.00 31 1007.3
20260509002130 60 177 3.5 6.1 0.00 0.00 0.00 31 1007.3
20260509001714 61 360 2.6 7.0 0.00 0.00 0.00 31 1007.4
20260509001132 61 360 4.3 7.0 0.00 0.00 0.00 30 1007.4
20260509000652 61 185 3.5 7.0 0.00 0.00 0.00 29 1007.5
20260509000127 61 205 3.5 7.0 0.00 0.00 0.00 29 1007.5
20260508235638 62 360 2.6 8.7 0.00 0.00 0.00 29 1007.5
20260508235129 62 203 4.3 8.7 0.00 0.00 0.00 30 1007.6
20260508234640 62 208 5.2 7.0 0.00 0.00 0.00 30 1007.7
20260508234131 62 360 5.2 10.4 0.00 0.00 0.00 30 1007.6
20260508233642 62 221 6.1 10.4 0.00 0.00 0.00 30 1007.6
20260508233145 63 360 5.2 9.6 0.00 0.00 0.00 30 1007.7
20260508232636 63 223 3.5 7.8 0.00 0.00 0.00 29 1007.7
20260508232147 63 202 3.5 9.6 0.00 0.00 0.00 28 1007.7
20260508231642 63 259 5.2 9.6 0.00 0.00 0.00 29 1007.8
20260508231132 63 233 5.2 9.6 0.00 0.00 0.00 29 1007.8
20260508230638 63 223 3.5 7.0 0.00 0.00 0.00 29 1007.8
20260508230202 63 360 2.6 7.0 0.00 0.00 0.00 29 1007.8
20260508225632 63 244 3.5 7.0 0.00 0.00 0.00 29 1007.7
20260508225141 63 360 3.5 7.8 0.00 0.00 0.00 29 1007.8
20260508224645 63 360 2.6 7.8 0.00 0.00 0.00 29 1007.8
20260508224156 63 244 3.5 7.8 0.00 0.00 0.00 29 1007.8
20260508223642 63 360 3.5 9.6 0.00 0.00 0.00 29 1007.7
20260508223137 63 360 6.1 9.6 0.00 0.00 0.00 29 1007.8
20260508222628 63 360 4.3 13.9 0.00 0.00 0.00 28 1007.8
20260508222139 63 360 6.1 13.9 0.00 0.00 0.00 30 1008.0
20260508221643 63 360 6.1 10.4 0.00 0.00 0.00 29 1008.0
20260508221154 63 206 7.0 10.4 0.00 0.00 0.00 30 1008.0
20260508220643 64 360 3.5 8.7 0.00 0.00 0.00 30 1007.9
20260508220203 63 360 4.3 9.6 0.00 0.00 0.00 29 1008.1
20260508215630 63 360 6.1 9.6 0.00 0.00 0.00 29 1007.9
20260508215140 63 360 3.5 9.6 0.00 0.00 0.00 29 1007.9
20260508214635 63 32 4.3 9.6 0.00 0.00 0.00 29 1007.9
20260508214126 63 360 2.6 7.8 0.00 0.00 0.00 30 1007.9
20260508213706 63 360 4.3 9.6 0.00 0.00 0.00 29 1008.0
20260508213136 63 360 5.2 10.4 0.00 0.00 0.00 29 1008.0
20260508212627 64 360 3.5 7.8 0.00 0.00 0.00 29 1008.1
20260508212158 64 360 4.3 7.8 0.00 0.00 0.00 29 1008.1
20260508211640 64 360 2.6 8.7 0.00 0.00 0.00 31 1008.1
20260508211151 64 360 4.3 8.7 0.00 0.00 0.00 29 1008.1
20260508210642 64 300 4.3 9.6 0.00 0.00 0.00 28 1008.2
20260508210158 64 360 4.3 9.6 0.00 0.00 0.00 30 1008.3
20260508205652 63 360 2.6 11.3 0.00 0.00 0.00 29 1008.2
20260508205133 63 360 4.3 11.3 0.00 0.00 0.00 29 1008.3
20260508204657 64 360 4.3 9.6 0.00 0.00 0.00 29 1008.3
20260508204126 63 360 5.2 10.4 0.00 0.00 0.00 29 1008.3
20260508203637 63 360 5.2 13.9 0.00 0.00 0.00 30 1008.4
20260508203132 63 229 7.0 13.9 0.00 0.00 0.00 30 1008.5
20260508202652 63 360 4.3 10.4 0.00 0.00 0.00 30 1008.4
20260508202138 63 360 7.0 11.3 0.00 0.00 0.00 29 1008.5
20260508201633 64 360 4.3 7.8 0.00 0.00 0.00 28 1008.6
20260508201143 64 360 2.6 9.6 0.00 0.00 0.00 29 1008.6
20260508200633 63 305 4.3 9.6 0.00 0.00 0.00 30 1008.7
20260508200137 63 360 3.5 12.2 0.00 0.00 0.00 29 1008.8
20260508195648 63 360 6.1 12.2 0.00 0.00 0.00 30 1008.9
20260508195139 63 288 6.1 11.3 0.00 0.00 0.00 30 1008.9
20260508194629 63 360 4.3 9.6 0.00 0.00 0.00 29 1008.9
20260508194140 63 360 3.5 9.6 0.00 0.00 0.00 30 1009.0
20260508193631 62 360 1.7 10.4 0.00 0.00 0.00 29 1009.1
20260508193126 62 360 6.1 12.2 0.00 0.00 0.00 29 1009.2
20260508192645 62 360 5.2 13.9 0.00 0.00 0.00 30 1009.2
20260508192127 62 360 6.1 13.9 0.00 0.00 0.00 29 1009.2
20260508191651 62 360 5.2 13.0 0.00 0.00 0.00 31 1009.1
20260508191206 62 360 3.5 13.0 0.00 0.00 0.00 31 1009.2
20260508190627 62 220 4.3 10.4 0.00 0.00 0.00 30 1009.2
20260508190129 62 360 3.5 10.4 0.00 0.00 0.00 29 1009.4
20260508185640 62 360 4.3 8.7 0.00 0.00 0.00 31 1009.4
20260508185131 62 360 4.3 8.7 0.00 0.00 0.00 30 1009.4
20260508184635 62 360 3.5 8.7 0.00 0.00 0.00 32 1009.5
20260508184145 61 360 4.3 10.4 0.00 0.00 0.00 30 1009.5
20260508183632 62 360 5.2 11.3 0.00 0.00 0.00 30 1009.6
20260508183127 62 360 6.1 11.3 0.00 0.00 0.00 30 1009.6
20260508182637 62 360 4.3 11.3 0.00 0.00 0.00 31 1009.7
20260508182126 61 360 6.1 11.3 0.00 0.00 0.00 30 1009.7
20260508181650 61 360 4.3 10.4 0.00 0.00 0.00 31 1009.7
20260508181132 61 360 1.7 11.3 0.00 0.00 0.00 32 1009.8
20260508180651 61 360 3.5 12.2 0.00 0.00 0.00 32 1009.8
20260508180142 61 224 4.3 9.6 0.00 0.00 0.00 33 1009.9
20260508175633 60 360 4.3 9.6 0.00 0.00 0.00 33 1009.9
20260508175143 60 360 2.6 9.6 0.00 0.00 0.00 33 1010.1
20260508174646 60 360 5.2 7.8 0.00 0.00 0.00 35 1010.1
20260508174136 60 360 3.5 7.8 0.00 0.00 0.00 35 1010.3
20260508173627 60 360 1.7 8.7 0.00 0.00 0.00 37 1010.4
20260508173146 60 360 4.3 8.7 0.00 0.00 0.00 37 1010.5
20260508172636 59 360 5.2 10.4 0.00 0.00 0.00 37 1010.5
20260508172146 59 360 7.0 10.4 0.00 0.00 0.00 38 1010.5
20260508171641 59 360 0.9 7.8 0.00 0.00 0.00 37 1010.6
20260508171152 59 360 4.3 10.4 0.00 0.00 0.00 37 1010.7
20260508170651 60 360 7.0 10.4 0.00 0.00 0.00 35 1010.9
20260508170126 61 360 5.2 10.4 0.00 0.00 0.00 35 1011.0
20260508165637 60 360 6.1 10.4 0.00 0.00 0.00 35 1011.0
20260508165144 60 360 0.9 9.6 0.00 0.00 0.00 37 1011.1
20260508164708 59 169 4.3 11.3 0.00 0.00 0.00 38 1011.2
20260508164158 59 360 5.2 13.0 0.00 0.00 0.00 37 1011.2
20260508163628 60 360 5.2 10.4 0.00 0.00 0.00 36 1011.4
20260508163212 60 273 4.3 10.4 0.00 0.00 0.00 36 1011.5
20260508162658 59 186 2.6 11.3 0.00 0.00 0.00 35 1011.4
20260508162148 60 360 2.6 7.0 0.00 0.00 0.00 36 1011.4
20260508161651 60 22 1.7 8.7 0.00 0.00 0.00 38 1011.4
20260508161140 59 192 3.5 10.4 0.00 0.00 0.00 37 1011.6
20260508160632 59 150 4.3 12.2 0.00 0.00 0.00 37 1011.6
20260508160127 58 360 7.8 12.2 0.00 0.00 0.00 37 1011.5
20260508155701 59 360 1.7 10.4 0.00 0.00 0.00 39 1011.6
20260508155131 58 360 1.7 10.4 0.00 0.00 0.00 39 1011.6
20260508154625 58 360 2.6 7.8 0.00 0.00 0.00 39 1011.6
20260508154136 57 148 4.3 7.8 0.00 0.00 0.00 39 1011.7
20260508153627 58 360 4.3 8.7 0.00 0.00 0.00 39 1011.7
20260508153130 57 151 2.6 11.3 0.00 0.00 0.00 41 1011.6
20260508152640 57 360 5.2 11.3 0.00 0.00 0.00 42 1011.8
20260508152131 57 133 1.7 9.6 0.00 0.00 0.00 43 1011.8
20260508151712 56 360 3.5 9.6 0.00 0.00 0.00 44 1011.8
20260508151140 57 360 4.3 9.6 0.00 0.00 0.00 40 1011.8
20260508150650 56 144 2.6 9.6 0.00 0.00 0.00 38 1011.9
20260508150142 56 360 3.5 8.7 0.00 0.00 0.00 40 1012.0
20260508145652 56 360 5.2 8.7 0.00 0.00 0.00 37 1012.0
20260508145151 57 236 3.5 5.2 0.00 0.00 0.00 39 1012.0
20260508144641 56 146 0.9 7.8 0.00 0.00 0.00 45 1012.0
20260508144132 56 360 4.3 7.8 0.00 0.00 0.00 43 1012.0
20260508143643 56 360 4.3 9.6 0.00 0.00 0.00 43 1012.0
20260508143137 55 360 1.7 9.6 0.00 0.00 0.00 42 1012.0
20260508142627 55 360 5.2 9.6 0.00 0.00 0.00 44 1012.1
20260508142138 55 360 3.5 8.7 0.00 0.00 0.00 47 1012.2
20260508141641 55 360 3.5 10.4 0.00 0.00 0.00 50 1012.2
20260508141148 55 155 6.1 10.4 0.00 0.00 0.00 53 1012.2
20260508140639 55 360 3.5 4.3 0.00 0.00 0.00 52 1012.2
20260508140133 55 140 2.6 4.3 0.00 0.00 0.00 56 1012.1
20260508135644 54 157 2.6 4.3 0.00 0.00 0.00 59 1012.2
20260508135134 54 141 0.9 7.0 0.00 0.00 0.00 59 1012.2
20260508134628 54 150 2.6 4.3 0.00 0.00 0.00 61 1012.2
20260508134148 53 142 0.9 4.3 0.00 0.00 0.00 63 1012.1
20260508133630 52 145 2.6 4.3 0.00 0.00 0.00 64 1012.3
20260508133130 52 154 0.9 6.1 0.00 0.00 0.00 66 1012.2
20260508132641 52 142 2.6 5.2 0.00 0.00 0.00 66 1012.3
20260508132131 50 148 1.7 6.1 0.00 0.00 0.00 68 1012.3
20260508131625 50 148 1.7 6.1 0.00 0.00 0.00 68 1012.5
20260508131135 49 148 1.7 4.3 0.00 0.00 0.00 70 1012.5
20260508130626 49 145 2.6 4.3 0.00 0.00 0.00 70 1012.5
20260508130150 48 140 0.9 4.3 0.00 0.00 0.00 72 1012.6
20260508125640 47 153 2.6 5.2 0.00 0.00 0.00 73 1012.6
20260508125147 47 157 0.9 7.0 0.00 0.00 0.00 73 1012.7
20260508124642 46 145 2.6 7.0 0.00 0.00 0.00 73 1012.6
20260508124133 46 156 0.9 3.5 0.00 0.00 0.00 75 1012.6
20260508123643 45 145 1.7 6.1 0.00 0.00 0.00 76 1012.6
20260508123147 45 146 1.7 6.1 0.00 0.00 0.00 76 1012.7
20260508122628 45 140 1.7 4.3 0.00 0.00 0.00 78 1012.6
20260508122148 44 140 1.7 3.5 0.00 0.00 0.00 79 1012.6
20260508121639 44 132 2.6 3.5 0.00 0.00 0.00 79 1012.6
20260508121130 43 46 0.9 1.7 0.00 0.00 0.00 80 1012.4
20260508120641 43 360 0.9 1.7 0.00 0.00 0.00 81 1012.4
20260508120136 43 360 0.0 0.9 0.00 0.00 0.00 82 1012.3
20260508115627 42 360 0.0 0.9 0.00 0.00 0.00 83 1012.2
20260508115207 41 360 0.0 0.9 0.00 0.00 0.00 84 1012.2
20260508114641 41 355 0.0 0.0 0.00 0.00 0.00 85 1012.2
20260508114131 40 355 0.0 0.9 0.00 0.00 0.00 87 1012.1
20260508113638 39 355 0.0 0.9 0.00 0.00 0.00 87 1012.1
20260508113133 39 350 0.0 0.9 0.00 0.00 0.00 87 1012.1
20260508112653 39 355 0.0 0.0 0.00 0.00 0.00 88 1012.1
20260508112203 38 355 0.0 0.0 0.00 0.00 0.00 89 1012.1
20260508111636 37 355 0.0 0.0 0.00 0.00 0.00 88 1012.1
20260508111126 37 355 0.0 0.0 0.00 0.00 0.00 88 1012.1
20260508110637 37 350 0.0 0.0 0.00 0.00 0.00 88 1012.1
20260508110127 37 350 0.0 0.9 0.00 0.00 0.00 88 1012.1
20260508105647 37 355 0.0 0.9 0.00 0.00 0.00 88 1012.1
20260508105157 36 355 0.0 0.0 0.00 0.00 0.00 88 1012.0
20260508104631 36 355 0.0 0.0 0.00 0.00 0.00 88 1011.9
20260508104212 36 355 0.0 0.0 0.00 0.00 0.00 88 1011.9
20260508103702 37 355 0.0 0.9 0.00 0.00 0.00 87 1011.8
20260508103131 37 355 0.0 0.9 0.00 0.00 0.00 87 1011.9
20260508102642 37 355 0.0 0.9 0.00 0.00 0.00 87 1011.9
20260508102132 37 355 0.0 0.9 0.00 0.00 0.00 87 1011.9
20260508101636 37 355 0.0 0.9 0.00 0.00 0.00 87 1011.9
20260508101146 37 355 0.0 0.9 0.00 0.00 0.00 86 1012.0
20260508100637 37 355 0.0 0.0 0.00 0.00 0.00 86 1012.0
20260508100131 37 355 0.0 0.0 0.00 0.00 0.00 86 1012.0
20260508095646 37 355 0.0 0.0 0.00 0.00 0.00 86 1012.1
20260508095125 37 355 0.0 0.0 0.00 0.00 0.00 85 1011.9
20260508094648 37 355 0.0 0.0 0.00 0.00 0.00 85 1012.1
20260508094138 38 355 0.0 0.0 0.00 0.00 0.00 85 1012.0
20260508093628 38 355 0.0 0.9 0.00 0.00 0.00 85 1012.0
20260508093154 38 355 0.0 1.7 0.00 0.00 0.00 85 1011.9
20260508092644 38 355 0.0 1.7 0.00 0.00 0.00 84 1012.1
20260508092151 38 355 0.0 0.9 0.00 0.00 0.00 84 1012.1